Retour au catalogue

T.MICROSAT-2

ActifScienceSSO
NORAD 68433·PAYLOAD·🇹🇼 Taiwan

Lancé Mar 30, 2026 depuis Vandenberg Space Force Base

Loading…

Prochains Passages (prochaines 24 heures)

TLE

FraisSource: Space-Track

Époque: Sep 14, 2026, 07:50 UTC

1 68433U 26067T   26257.32703292  .00003371  00000-0  16850-3 0  9992
2 68433  97.4666 214.4198 0007404 105.4042 254.8010 15.18116591 25458

Suivez T.MICROSAT-2 en temps réel avec AllMySat

Download on the App Store